Volver al catálogo

QIANFAN-157

ActivoComunicacionesPO
NORAD 69116·PAYLOAD·🇨🇳 China

Lanzado May 17, 2026 desde Wenchang Space Launch Site

Loading…

Próximos Pases (próximas 24 horas)

TLE

ActualizadoSource: Space-Track

Época: Sep 14, 2026, 20:42 UTC

1 69116U 26108N   26257.86269595  .00000105  00000-0  14342-3 0  9995
2 69116  89.0186  12.9920 0002023 111.5539 248.5828 13.51027425 16602

Sigue QIANFAN-157 en tiempo real con AllMySat

Download on the App Store